Regional Weather Roundup
Issued by NWS

Home | Current Version | Previous Version | Text Only | Print | Product List | Glossary Off
Versions: 1 2 3 4 5 6 7 8 9 10 11 12 13 14 15 16 17 18 19 20 21 22 23 24 25 26 27 28 29 30 31 32 33 34 35 36 37 38 39 40 41 42 43 44 45 46 47 48 49 50

000
ASUS45 KPSR 280800
RWRAZ

PRELIMINARY ARIZONA REGIONAL HOURLY WEATHER ROUNDUP
NATIONAL WEATHER SERVICE PHOENIX AZ
100 AM MST SAT FEB 28 2015

NOTE: FAIR INDICATES FEW OR NO CLOUDS BELOW 12,000 FEET WITH NO
SIGNIFICANT WEATHER AND/OR OBSTRUCTIONS TO VISIBILITY.

AZZ001>003-036-280900-
NORTHWEST ARIZONA

CITY           SKY/WX    TMP DP  RH WIND       PRES   REMARKS
KINGMAN        CLEAR     50  36  58 S17       29.63R
$$

AZZ004>008-015-016-018-280900-
NORTH CENTRAL ARIZONA

CITY           SKY/WX    TMP DP  RH WIND       PRES   REMARKS
GRAND CANYON   CLOUDY    33  30  88 NE5       29.69S WCI  29
PRESCOTT       CLOUDY    45  34  65 SW12      29.72S
FLAGSTAFF      CLOUDY    37  31  78 SW20      29.72S WCI  27
PAYSON         CLOUDY    46  37  71 SW9       29.78S
PAGE           LGT RAIN  40  35  83 E3        29.71F
$$

AZZ009>014-017-280900-
NORTHEAST ARIZONA

CITY           SKY/WX    TMP DP  RH WIND       PRES   REMARKS
WINSLOW        NOT AVBL
SAINT JOHNS    MOCLDY    43  29  57 SW9       29.74S
WINDOW ROCK    MOCLDY    31  28  89 N3        29.76R
SHOW LOW       MOCLDY    39  27  60 S16G22    29.78R WCI  30
$$

AZZ023-280900-
GREATER PHOENIX AREA

CITY           SKY/WX    TMP DP  RH WIND       PRES   REMARKS
PHOENIX        MOCLDY    65  36  34 S8        29.69R
DEER VALLEY    CLOUDY    61  38  42 W10       29.70R
SCOTTSDALE     CLOUDY    62  37  39 SE3       29.72R
$$

AZZ027-028-280900-
SOUTHWEST MARICOPA COUNTY AND PINAL COUNTY

CITY           SKY/WX    TMP DP  RH WIND       PRES   REMARKS
CASA GRANDE    PTCLDY    59  39  47 S10       29.73S
$$

AZZ503-504-507>509-280900-
SOUTHEAST ARIZONA

CITY           SKY/WX    TMP DP  RH WIND       PRES   REMARKS
TUCSON         CLEAR     59  36  42 VRB3      29.80R
DAVIS-MONTHAN  CLEAR     58  37  46 W6        29.78S
NOGALES        CLEAR     53  37  54 S16G24    29.85S
SIERRA VISTA   CLEAR     52  35  52 SE14G28   29.84S
SAFFORD        PTCLDY    51  32  48 NE6       29.75S
$$

AZZ020-021-025-026-031-280900-
SOUTHWEST ARIZONA

CITY           SKY/WX    TMP DP  RH WIND       PRES   REMARKS
YUMA           NOT AVBL
$$

CAZ031-033-041-043-047-048-061-280900-
SOUTHERN CALIFORNIA

CITY           SKY/WX    TMP DP  RH WIND       PRES   REMARKS
DOWNTOWN L.A.  CLEAR     57  49  74 CALM      29.75S
L.A. AIRPORT   PTCLDY    57  50  77 W20       29.75S
SAN DIEGO      MOCLDY    62  51  67 W12       29.84S
BURBANK        CLOUDY    56  49  77 SE13      29.74S
ONTARIO        MOCLDY    55  49  80 W9        29.76S
RIVERSIDE      PTCLDY    56  48  74 W5        29.76F
PALM SPRINGS   CLEAR     64  42  44 E12       29.64F
EL CENTRO NAS  CLEAR     64  43  46 W25G31    29.70S
IMPERIAL       CLEAR     62  45  53 W10       29.69F
BLYTHE         PTCLDY    62  44  51 SW17      29.66R
$$

NVZ020-UTZ003-280900-
SOUTHERN NEVADA-UTAH

CITY           SKY/WX    TMP DP  RH WIND       PRES   REMARKS
LAS VEGAS      PTCLDY    56  36  47 S15G28    29.51S
SALT LAKE CITY PTCLDY    32  23  69 S6        29.69S WCI  26
$$

NMZ009-TXZ055-280900-
NEW MEXICO-WEST TEXAS

CITY           SKY/WX    TMP DP  RH WIND       PRES   REMARKS
ALBUQUERQUE    LGT SNOW  20  18  92 N9        29.90R FOG     WCI   9
EL PASO        PTCLDY    28  20  71 NE7       29.97R WCI  21
$$


........................KEY........................
SKY/WX - SKY CONDITION/WEATHER
TMP    - TEMPERATURE IN FAHRENHEIT
DP     - DEW POINT IN FAHRENHEIT
RH     - RELATIVE HUMIDITY IN PERCENT
WIND   - DIRECTION AND SPEED IN MILES PER HOUR (MPH)
VRB    - VARIABLE WIND DIRECTION
PRES   - MEAN SEA LEVEL PRESSURE IN INCHES OF MERCURY
         F - FALLING PRESSURE   R - RISING PRESSURE
         S - STEADY PRESSURE
VSB    - VISIBILITY IN MILES
HX     - HEAT INDEX IN FAHRENHEIT
WCI    - WIND CHILL INDEX IN FAHRENHEIT
TC     - TEMPERATURE IN CELSIUS WHICH IS ALSO KNOWN AS
         TEMPERATURE IN CENTIGRADE
AFB    - AIR FORCE BASE
         LUKE AFB IS LUKE AIR FORCE BASE
         DAVIS-MONTHAN IS DAVIS-MONTHAN AIR FORCE BASE
NAS    - NAVAL AIR STATION
         EL CENTRO NAS IS EL CENTRO NAVAL AIR STATION
N/A    - NOT AVAILABLE


USA.gov is the U.S. government's official web portal to all federal, state and local government web resources and services.